Red Bluff, CA

12:35 PM PDT on July 21, 2017 (GMT -0700)
Red Bluff Municipal

Weather History for KRBL - January, 2013

Change the Weather History Date:

Sunday, January 20, 2013

  Actual Average Record
Temperature  
Mean Temperature 50 °F -  
Max Temperature 69 °F 57 °F 75 °F (2014)
Min Temperature 30 °F 38 °F 19 °F (1937)
Degree Days  
Heating Degree Days 16    
Moisture  
Dew Point 23 °F    
Average Humidity 45    
Maximum Humidity 75    
Minimum Humidity 7    
Precipitation  
Precipitation 0.00 in - - ()
Sea Level Pressure  
Sea Level Pressure 30.22 in    
Wind  
Wind Speed 7 mph (NNW)    
Max Wind Speed 13 mph    
Max Gust Speed -    
Visibility 10 miles    
Events      
Averages and records for this station are not official NWS values.
T = Trace of Precipitation, MM = Missing Value Source: NWS Daily Summary

Daily Weather History Graph

Daily Weather History Graph

Search for Another Location

Airport or City:

Trip Planner

Search our weather history database for the weather conditions in past years. The results will help you decide how hot, cold, wet, or windy it might be!

Date:

Astronomy

Jan. 20, 2013 Rise Set
Actual Time 7:26 AM PST 5:13 PM PST
Civil Twilight 6:57 AM PST 5:43 PM PST
Nautical Twilight 6:24 AM PST 6:16 PM PST
Astronomical Twilight 5:51 AM PST 6:48 PM PST
Moon 12:18 PM PST (1/20) 2:04 AM PST (1/20)
Length of Visible Light 10h 46m
Length of Day
9h 47m
Waxing Gibbous, 67% of the Moon is Illuminated
Jan 20
Waxing Gibbous
Jan 26
Full
Feb 3
Last Quarter
Feb 9
New
Feb 17
First Quarter

Hourly Weather History & Observations

Time (PST) Temp. Windchill Dew Point Humidity Pressure Visibility Wind Dir Wind Speed Gust Speed Precip Events Conditions
12:54 AM 35.1 °F 30.1 °F 25.0 °F 67% 30.27 in 10.0 mi NNW 5.8 mph - N/A   Clear
1:54 AM 34.0 °F 27.2 °F 24.1 °F 67% 30.27 in 10.0 mi NNW 8.1 mph - N/A   Clear
2:54 AM 35.1 °F 27.4 °F 24.1 °F 64% 30.27 in 10.0 mi NNW 10.4 mph - N/A   Clear
3:54 AM 37.0 °F 30.4 °F 23.0 °F 57% 30.27 in 10.0 mi NNW 9.2 mph - N/A   Clear
4:54 AM 33.1 °F 26.1 °F 21.9 °F 64% 30.27 in 10.0 mi NNW 8.1 mph - N/A   Clear
5:54 AM 35.1 °F 27.4 °F 21.9 °F 59% 30.27 in 10.0 mi NW 10.4 mph - N/A   Clear
6:54 AM 34.0 °F 26.6 °F 21.9 °F 61% 30.27 in 10.0 mi NNW 9.2 mph - N/A   Clear
7:54 AM 34.0 °F 28.0 °F 21.9 °F 61% 30.27 in 10.0 mi NNW 6.9 mph - N/A   Clear
8:54 AM 39.0 °F 34.8 °F 26.1 °F 60% 30.28 in 10.0 mi NNW 5.8 mph - N/A   Clear
9:54 AM 48.0 °F - 26.1 °F 42% 30.28 in 10.0 mi North 6.9 mph - N/A   Clear
10:54 AM 55.0 °F - 25.0 °F 31% 30.27 in 10.0 mi North 9.2 mph - N/A   Clear
11:54 AM 61.0 °F - 19.0 °F 20% 30.23 in 10.0 mi North 12.7 mph - N/A   Clear
12:54 PM 64.0 °F - 19.9 °F 18% 30.19 in 10.0 mi North 9.2 mph - N/A   Clear
1:54 PM 66.0 °F - 21.9 °F 19% 30.16 in 10.0 mi North 6.9 mph - N/A   Clear
2:54 PM 69.1 °F - 19.0 °F 15% 30.15 in 10.0 mi North 8.1 mph - N/A   Clear
3:54 PM 68.0 °F - 19.0 °F 15% 30.13 in 10.0 mi North 8.1 mph - N/A   Clear
4:54 PM 63.0 °F - 19.9 °F 19% 30.13 in 10.0 mi North 4.6 mph - N/A   Clear
5:54 PM 55.9 °F - 21.9 °F 27% 30.14 in 10.0 mi WNW 5.8 mph - N/A   Clear
6:54 PM 46.9 °F - 27.0 °F 46% 30.16 in 10.0 mi Calm Calm - N/A   Clear
7:54 PM 48.9 °F - 26.1 °F 41% 30.17 in 10.0 mi West 3.5 mph - N/A   Clear
8:54 PM 43.0 °F 40.3 °F 27.0 °F 53% 30.19 in 10.0 mi ENE 4.6 mph - N/A   Clear
9:54 PM 37.0 °F 34.5 °F 27.0 °F 67% 30.21 in 10.0 mi NW 3.5 mph - N/A   Clear
10:54 PM 34.0 °F 28.8 °F 26.1 °F 73% 30.22 in 10.0 mi NW 5.8 mph - N/A   Clear
11:54 PM 33.1 °F 28.7 °F 26.1 °F 75% 30.22 in 10.0 mi NW 4.6 mph - N/A   Clear